Find Starlink 35481

NORAD ID: 66247 Int'l Des: 2025-245 Owner: SPXS Country: US Constellation: starlink operational
LEOCIRCULAR

Live Position

Loading 3D Globe...

About Starlink 35481

Description loading...

Upcoming Passes

Passes for default location (London). Set your location on the main map for personalized predictions.

Altitude History

Loading altitude history...

Two-Line Element Set

1 66247U 25245P 26109.95294899 .00029565 00000-0 10061-2 0 9993
2 66247 53.1595 92.2587 0001334 95.7457 264.3696 15.30209766 27572
Epoch: Apr 19, 2026 • Age: 4 hours

Current Status

Altitude 491.0 km
Velocity 7.62 km/s
Sub-Earth Point -44.61°S, 64.72°E
Launch Date Oct 29, 2025
Age 0.4 years
Type internet

Technical Details

Classification Payload
Mass 575.00 kg
Dry Mass 530.00 kg
Total Mass 575.00 kg
Length 0.30 m
Diameter 4.10 m
Span 29.00 m
Shape Box + pan
Manufacturer SPXS
Bus Type Starlink V2MO
Phase Status In Orbit
Owner/State SPXS/US

Most Searched